User: anonymous   Login
Location: The Saddle
(36.8333°N, 80.3417°W)
Time: 03:05:47
(UTC-05:00)
Language:

JUGNU - Orbit

View from above orbital plane
View from above orbital plane
View from above satellite
View from above satellite

Ground track
Ground track

The orbit data is extracted from the following two-line orbital elements,

1 37839U 11058B   24063.12127255  .00000549  00000-0  14846-3 0  9999
2 37839  19.9616 345.6566 0018814 205.8819 181.9394 14.13131659640597
Epoch (UTC): 03 March 2024 02:54:37
Eccentricity: 0.0018814
inclination: 19.9616°
perigee height: 835 km
apogee height: 862 km
right ascension of ascending node: 345.6566°
argument of perigee: 205.8819°
revolutions per day: 14.13131659
mean anomaly at epoch: 181.9394°
orbit number at epoch: 64059

The dashed part of the orbit path shows where the satellite is in the earth's shadow,  

DLR